Tracking 28091 objects as of 30-Sep-2023
HD Live streaming from Space Station
objects crossing your sky now

STARLINK-6219

Track STARLINK-6219 now!
10-day predictions
STARLINK-6219 is classified as:


NORAD ID: 56892
Int'l Code: 2023-083S
Perigee: 565.5 km
Apogee: 566.9 km
Inclination: 43.0 °
Period: 95.8 minutes
Semi major axis: 6937 km
RCS: Unknown
Launch date: June 12, 2023
Source: United States (US)
Launch site: AIR FORCE EASTERN TEST RANGE (AFETR)
Your satellite tracking list
Your tracking list is empty




NASA's NSSDC Master Catalog

Two Line Element Set (TLE):
1 56892U 23083S   23273.35893080  .00001699  00000-0  14075-3 0  9994
2 56892  43.0016 244.7960 0001051 273.3097  86.7625 15.02544356 16798
Source of the keplerian elements: AFSPC